Flag for Switzerland Weather past 2 weeks in Mendrisio, Ticino, Switzerland

Now
64 °F

Mild.


Feels Like: 64 °F
Forecast: 36 / 57 °F
Wind: 2 mph from South

Location: Stabio

Current Time: Mar 29, 2015 at 6:35:15 PM

Latest Report: Mar 29, 2015 at 5:00 PM


Visibility: N/A

Pressure: 29.78 "Hg

Humidity: 39%

Dew point: 38 °F

Location of MendrisioLocation

Historic Weather in Mendrisio — Graph

°F

Mendrisio temperature yesterday

Maximum temperature yesterday: 65 °F (at 4:00 PM)
Minimum temperature yesterday: 38 °F (at 6:00 AM)
Average temperature yesterday: 54 °F

Past Weeks' High & Low Weather Summary

 TemperatureHumidityPressure
High65 °F (Mar 28, 4:00 PM)100% (Mar 16, 2:00 AM)30.40 "Hg (Mar 16, 2:00 AM)
Low34 °F (Mar 18, 7:00 AM)17% (Mar 27, 4:00 PM)29.54 "Hg (Mar 25, 5:00 PM)
Average48 °F74%30.06 "Hg
* Reported Mar 14 4:00 PM — Mar 29 5:00 PM, Mendrisio, Weather by CustomWeather, © 2015

Note: Actual official high and low records may vary slightly from our data, if they occured in-between our weather recording intervals... More about our weather records

Advertising

Mendrisio weather history for previous 24 hours

 ConditionsComfort  
Time TempWeatherWind HumidityBarometerVisibility
5:00 PM
Sun, Mar 29
64 °FMild.2 mph39%29.78 "HgN/A
4:00 PM62 °FRefreshingly cool.1 mph38%29.80 "HgN/A
3:00 PM62 °FRefreshingly cool.3 mph39%29.83 "HgN/A
2:00 PM63 °FMild.3 mph34%29.85 "HgN/A
1:00 PM62 °FRefreshingly cool.3 mph36%29.88 "HgN/A
12:00 PM58 °FRefreshingly cool.1 mph39%29.91 "HgN/A
11:00 AM56 °FRefreshingly cool.3 mph49%29.93 "HgN/A
10:00 AM55 °FRefreshingly cool.2 mph53%29.94 "HgN/A
9:00 AM46 °FCool.1 mph75%29.97 "HgN/A
8:00 AM36 °FChilly.1 mph84%29.98 "HgN/A
7:00 AM36 °FChilly.1 mph78%29.98 "HgN/A
6:00 AM36 °FChilly.1 mph84%29.99 "HgN/A
5:00 AM39 °FChilly.1 mph75%29.97 "HgN/A
4:00 AM38 °FChilly.1 mph74%29.97 "HgN/A
3:00 AM40 °FChilly.No wind70%29.98 "HgN/A
1:00 AM42 °FQuite cool.3 mph68%29.98 "HgN/A
12:00 AM42 °FQuite cool.2 mph69%29.99 "HgN/A
11:00 PM
Sat, Mar 28
44 °FQuite cool.1 mph62%29.99 "HgN/A
9:00 PM47 °FCool.1 mph51%29.98 "HgN/A
8:00 PM49 °FCool.No wind48%29.97 "HgN/A
7:00 PM53 °FCool.2 mph40%29.95 "HgN/A
6:00 PM61 °FRefreshingly cool.5 mph28%29.92 "HgN/A
Weather by CustomWeather, © 2015

See weather overviewHow to use our weather pages